[[{"header":{"parameterUnit":"m.s-1","parameterCategory":1,"la1":30.2991,"la2":30.254,"lo1":-89.0895,"lo2":-89.0444,"dy":0.0017,"dx":0.0017,"nx":28,"ny":28,"refTime":"2024-12-01T03:00:00:Z","depth":0,"parameterNumber":2,"parameterNumberName":"U-component_of_WINDS"},"data":[0,0,0,0,0,0,0,0,0,0,0,0,0,0,0,0,0,0,0,0,0,0,0,0,0,0,0,0,0,0,0,0,0,0,0,0,0,0,0,0,0,0,0,0,0,0,0,0,0,0,0,0,0,0,0,0,0,0,-1.937,-1.937,0,-1.9366,-1.9366,-1.9366,-1.9269,-1.9266,-1.9264,-1.9262,-1.9261,-1.9263,-1.9265,0,0,0,0,0,0,0,0,0,0,0,0,0,-1.9297,-1.9299,-1.937,-1.937,-1.937,-1.9366,-1.9366,-1.9366,-1.9269,-1.9266,-1.9263,-1.926,-1.926,-1.9263,-1.9265,0,0,0,0,0,0,0,0,0,0,0,0,0,-1.9315,-1.93,-1.937,-1.9321,-1.9317,-1.9366,-1.9366,-1.9366,-1.927,-1.9266,-1.9263,-1.9259,-1.9259,-1.9262,-1.9266,-1.9362,0,0,-1.9276,-1.9278,0,0,0,0,0,0,0,0,-1.9314,-1.9318,-1.9329,-1.9325,-1.932,-1.9314,-1.934,-1.9365,-1.9271,-1.9288,-1.9262,-1.9257,-1.9282,-1.9283,-1.9291,-1.9362,-1.9362,-1.9277,-1.9279,-1.928,-1.9281,0,0,0,0,0,0,0,-1.9313,-1.9317,-1.9369,-1.9329,-1.9324,-1.93,-1.9299,-1.9344,-1.9306,-1.9286,-1.9279,-1.928,-1.9279,-1.9288,-1.929,-1.9362,-1.9277,-1.928,-1.9282,-1.9283,-1.951,-1.9514,0,0,0,0,0,0,-1.9318,-1.9317,-1.9369,-1.9369,-1.9308,-1.9305,-1.9303,-1.932,-1.9305,-1.9299,-1.9283,-1.9275,-1.9283,-1.9286,-1.929,-1.9399,-1.928,-1.9284,-1.9286,-1.9506,-1.9511,-1.9515,0,0,0,0,0,0,-1.9317,-1.9323,-1.9369,-1.9341,-1.9345,-1.931,-1.933,-1.9322,-1.933,-1.9303,-1.9296,-1.9299,-1.9281,-1.9285,-1.9344,-1.9398,-1.9285,-1.9288,-1.9501,-1.9507,-1.9513,-1.9621,0,0,0,0,0,0,-1.9315,-1.9324,-1.936,-1.9342,-1.9347,-1.9423,-1.9333,-1.9324,-1.9336,-1.9326,-1.9316,-1.9311,-1.9278,-1.9339,-1.9347,-1.9401,-1.9291,-1.9496,-1.9504,-1.9511,-1.9612,-1.963,-1.9645,0,0,0,0,0,-1.9313,-1.9392,-1.9362,-1.9369,-1.9391,-1.9427,-1.9429,-1.9389,-1.9341,-1.9377,-1.9359,-1.9311,-1.9391,-1.9346,-1.9355,-1.941,-1.9493,-1.9502,-1.951,-1.9605,-1.9626,-1.9644,0,0,0,0,0,0,-1.9418,-1.9389,-1.9355,-1.9431,-1.9432,-1.941,-1.9454,-1.9413,-1.9429,-1.9419,-1.937,-1.9368,-1.9435,-1.9428,-1.9379,-1.9501,-1.9433,-1.9444,-1.9502,-1.9522,-1.9538,-1.9538,-1.9294,0,0,0,0,0,-1.945,-1.9481,-1.9454,-1.9523,-1.9525,-1.949,-1.9504,-1.9473,-1.9472,-1.9473,-1.9459,-1.9461,-1.9486,-1.9504,-1.9526,-1.9611,-1.9607,-1.9653,-1.9669,-1.9683,-1.9692,-1.9734,-1.9754,-1.9544,-1.9544,-1.9544,0,0,-1.9517,-1.9504,-1.9527,-1.9544,-1.9541,-1.9574,-1.9491,-1.953,-1.9554,-1.9479,-1.9533,-1.9523,-1.9522,-1.9594,-1.9625,-1.9591,-1.9749,-1.9694,-1.9705,-1.9707,-1.9746,-1.9765,-1.9783,-1.955,-1.9549,-1.9548,0,0,-1.9654,-1.9649,-1.9704,-1.9702,-1.9698,-1.9674,-1.9687,-1.9672,-1.9661,-1.9715,-1.9658,-1.9687,-1.9732,-1.9733,-1.9739,-1.9875,-1.9831,-1.9884,-1.9968,-2.0009,-2.0026,-2.004,-2.0086,-2.0104,-1.9894,-1.9894,-1.9894,0,-1.9738,-1.9784,-1.9739,-1.978,-1.9789,-1.972,-1.9776,-1.9777,-1.9781,-1.9789,-1.975,-1.9803,-1.9798,-1.9868,-1.9901,-1.9909,-1.9922,-1.9884,-2.0027,-2.0041,-2.0054,-2.0097,-2.0115,-1.99,-1.99,-1.9899,-1.9898,0,-1.9886,-1.9919,-1.9965,-1.9968,-1.9981,-2.0031,-1.9992,-2.0012,-1.9979,-1.9959,-2.0013,-2.0005,-2.0022,-2.0037,-2.0007,-2.0102,-2.008,-2.0035,-1.9966,-2.0081,-2.0121,-2.0137,-1.9909,-1.9907,-1.9905,-1.9904,0,0,-2.0091,-2.0066,-2.0083,-2.0082,-2.0072,-2.0097,-2.0142,-2.0158,-2.0174,-2.018,-2.0216,-2.0255,-2.0212,-2.0219,-2.0188,-2.0225,-2.033,-2.0175,-2.0174,-2.0202,-2.0432,-2.0465,-2.0485,-2.0301,-2.0304,-2.0307,-2.0432,0,-2.0222,-2.0296,-2.0255,-2.0335,-2.0364,-2.0299,-2.0338,-2.0336,-2.0319,-2.0341,-2.0322,-2.0349,-2.0292,-2.0295,-2.0329,-2.031,-2.0375,-2.0301,-2.0334,-2.0335,-2.0334,-2.0506,-2.0541,-2.066,-2.0447,-2.045,-2.0452,0,-2.0384,-2.0393,-2.0476,-2.0457,-2.0467,-2.0503,-2.0513,-2.0536,-2.0532,-2.0516,-2.0523,-2.0483,-2.0526,-2.0459,-2.0517,-2.0467,-2.0478,-2.0471,-2.0474,-2.0474,-2.0399,-2.0509,-2.0697,-2.0714,-2.0477,-2.0475,-2.0473,0,-2.0522,-2.0555,-2.0608,-2.061,-2.059,-2.0616,-2.061,-2.0602,-2.0613,-2.0622,-2.0628,-2.0644,-2.0651,-2.0664,-2.0629,-2.0583,-2.0691,-2.0621,-2.0678,-2.0679,-2.0703,-2.0701,-2.0893,-2.0714,-2.0714,-2.0713,-2.0713,0,-2.0672,-2.0724,-2.0669,-2.0701,-2.0758,-2.0711,-2.0768,-2.0755,-2.0748,-2.0776,-2.0722,-2.0751,-2.0703,-2.0726,-2.0699,-2.075,-2.0755,-2.0743,-2.0735,-2.0747,-2.0748,-2.0752,-2.0742,-2.0718,-2.0717,-2.0716,-2.0715,0,-2.0835,-2.08,-2.0853,-2.0829,-2.0824,-2.0866,-2.0846,-2.0875,-2.0853,-2.089,-2.0896,-2.0862,-2.0886,-2.0852,-2.0874,-2.0856,-2.0925,-2.0906,-2.0926,-2.0919,-2.0977,-2.0972,-2.1176,-2.12,-2.1008,-2.101,-2.1012,0,-2.0931,-2.0969,-2.0949,-2.0963,-2.0958,-2.0983,-2.0992,-2.0948,-2.0961,-2.0958,-2.0987,-2.1007,-2.102,-2.1062,-2.104,-2.1056,-2.1035,-2.1106,-2.1037,-2.1047,-2.1033,-2.103,-2.1033,-2.1119,-2.1122,-2.1124,-2.1125,0,-2.1105,-2.1086,-2.1101,-2.1111,-2.1124,-2.113,-2.1132,-2.1148,-2.11,-2.1118,-2.1141,-2.1151,-2.1172,-2.1192,-2.1201,-2.1195,-2.1152,-2.1147,-2.1161,-2.1172,-2.1181,-2.1174,-2.0961,-2.1142,-2.1141,-2.1139,-2.1138,-2.1138,-2.1236,-2.1266,-2.1255,-2.1274,-2.127,-2.1273,-2.1298,-2.1278,-2.1296,-2.1308,-2.1281,-2.131,-2.1304,-2.1312,-2.1311,-2.1333,-2.1302,-2.1323,-2.1328,-2.1333,-2.1341,-2.1179,-2.1335,-2.1335,-2.1334,-2.1334,-2.1333,0,-2.1405,-2.1394,-2.1412,-2.1415,-2.143,-2.1387,-2.1387,-2.1402,-2.1428,-2.1425,-2.1438,-2.1464,-2.1482,-2.1461,-2.1476,-2.1498,-2.1478,-2.1503,-2.15,-2.1498,-2.1369,-2.1354,-2.1518,-2.1518,-2.1518,-2.1518,-2.1518,-2.1518,-2.1495,-2.1542,-2.1521,-2.1565,-2.1554,-2.1581,-2.1584,-2.1586,-2.1582,-2.1613,-2.1627,-2.1613,-2.1602,-2.1615,-2.163,-2.1623,-2.163,-2.1661,-2.1647,-2.1526,-2.1508,-2.1491,-2.1476,-2.1663,-2.1664,-2.1774,-2.1775,-2.1776]},{"header":{"parameterUnit":"m.s-1","parameterCategory":1,"la1":30.2991,"la2":30.254,"lo1":-89.0895,"lo2":-89.0444,"dy":0.0017,"dx":0.0017,"nx":28,"ny":28,"refTime":"2024-12-01T03:00:00:Z","depth":0,"parameterNumber":3,"parameterNumberName":"V-component_of_WINDS"},"data":[0,0,0,0,0,0,0,0,0,0,0,0,0,0,0,0,0,0,0,0,0,0,0,0,0,0,0,0,0,0,0,0,0,0,0,0,0,0,0,0,0,0,0,0,0,0,0,0,0,0,0,0,0,0,0,0,0,0,-3.5684,-3.5684,0,-3.5734,-3.5735,-3.5735,-3.5673,-3.567,-3.5668,-3.5666,-3.5715,-3.5719,-3.5722,0,0,0,0,0,0,0,0,0,0,0,0,0,-3.5531,-3.5534,-3.5684,-3.5684,-3.5685,-3.5734,-3.5735,-3.5735,-3.5673,-3.567,-3.5668,-3.5665,-3.5714,-3.5718,-3.5722,0,0,0,0,0,0,0,0,0,0,0,0,0,-3.5591,-3.5535,-3.5684,-3.566,-3.5658,-3.5734,-3.5735,-3.5735,-3.5674,-3.567,-3.5667,-3.5664,-3.5713,-3.5718,-3.5723,-3.5823,0,0,-3.5739,-3.5741,0,0,0,0,0,0,0,0,-3.5587,-3.5596,-3.5663,-3.5662,-3.566,-3.5694,-3.5699,-3.5765,-3.5675,-3.5668,-3.5666,-3.5662,-3.5711,-3.5716,-3.5733,-3.5826,-3.5828,-3.5739,-3.5742,-3.5744,-3.5746,0,0,0,0,0,0,0,-3.5583,-3.5594,-3.5703,-3.5664,-3.5662,-3.5646,-3.565,-3.5711,-3.5708,-3.5668,-3.5664,-3.5671,-3.5709,-3.5728,-3.5733,-3.5828,-3.5739,-3.5743,-3.5747,-3.5749,-3.6004,-3.6007,0,0,0,0,0,0,-3.5582,-3.5591,-3.5702,-3.5705,-3.5615,-3.5651,-3.5657,-3.5686,-3.5707,-3.5707,-3.5674,-3.5668,-3.5721,-3.5727,-3.5735,-3.5852,-3.5744,-3.5749,-3.5752,-3.6,-3.6004,-3.6008,0,0,0,0,0,0,-3.5579,-3.5593,-3.57,-3.5647,-3.5659,-3.5658,-3.5691,-3.5689,-3.5708,-3.5711,-3.571,-3.5693,-3.5718,-3.5728,-3.5801,-3.5853,-3.5752,-3.5756,-3.5996,-3.6001,-3.6006,-3.6088,0,0,0,0,0,0,-3.5575,-3.5592,-3.5631,-3.5648,-3.5662,-3.5767,-3.5695,-3.5693,-3.5717,-3.571,-3.5729,-3.5729,-3.5716,-3.5794,-3.5806,-3.5858,-3.576,-3.5991,-3.5998,-3.6005,-3.6081,-3.6096,-3.6109,0,0,0,0,0,-3.557,-3.5652,-3.5633,-3.5647,-3.5711,-3.577,-3.5778,-3.5762,-3.5721,-3.576,-3.5762,-3.5729,-3.5846,-3.5802,-3.5816,-3.587,-3.5988,-3.5996,-3.6004,-3.6075,-3.6093,-3.6108,0,0,0,0,0,0,-3.5641,-3.5654,-3.5633,-3.5724,-3.5746,-3.5759,-3.5808,-3.5782,-3.5816,-3.5808,-3.5786,-3.5791,-3.5869,-3.5877,-3.5828,-3.5967,-3.591,-3.5921,-3.5959,-3.5976,-3.599,-3.5985,-3.5765,0,0,0,0,0,-3.5667,-3.5715,-3.5723,-3.5802,-3.5815,-3.581,-3.5835,-3.582,-3.5842,-3.5851,-3.5859,-3.588,-3.5922,-3.5949,-3.5988,-3.6082,-3.6084,-3.6126,-3.614,-3.6151,-3.6161,-3.6209,-3.6227,-3.6036,-3.6036,-3.6035,0,0,-3.5722,-3.5735,-3.5766,-3.5817,-3.5833,-3.5881,-3.5818,-3.5872,-3.5907,-3.5859,-3.5929,-3.5935,-3.5958,-3.6042,-3.6079,-3.6051,-3.6214,-3.6161,-3.6171,-3.6174,-3.6219,-3.6237,-3.6253,-3.6041,-3.604,-3.6039,0,0,-3.5846,-3.5862,-3.5928,-3.5945,-3.5969,-3.5965,-3.5981,-3.5998,-3.6,-3.607,-3.6034,-3.6075,-3.6148,-3.6165,-3.6183,-3.6312,-3.6282,-3.6325,-3.6397,-3.6445,-3.646,-3.6473,-3.6517,-3.6533,-3.6335,-3.6336,-3.6336,0,-3.591,-3.5983,-3.5965,-3.6022,-3.6044,-3.6003,-3.6069,-3.6086,-3.6122,-3.6138,-3.6106,-3.6194,-3.6207,-3.6293,-3.6325,-3.6342,-3.6358,-3.6323,-3.6459,-3.6472,-3.6484,-3.6526,-3.6543,-3.634,-3.634,-3.6339,-3.6339,0,-3.606,-3.6111,-3.6161,-3.6197,-3.6225,-3.6286,-3.6276,-3.6307,-3.629,-3.6289,-3.6359,-3.6373,-3.6412,-3.6432,-3.6416,-3.6516,-3.6497,-3.6463,-3.6405,-3.6508,-3.6546,-3.6562,-3.6348,-3.6346,-3.6344,-3.6343,0,0,-3.623,-3.6254,-3.6273,-3.6288,-3.6311,-3.635,-3.6408,-3.6447,-3.6473,-3.6499,-3.6546,-3.6608,-3.6575,-3.6596,-3.6582,-3.6623,-3.6722,-3.6583,-3.6583,-3.6607,-3.683,-3.6855,-3.6874,-3.6703,-3.6706,-3.6708,-3.6827,0,-3.6352,-3.6454,-3.644,-3.6537,-3.6582,-3.6544,-3.6594,-3.6614,-3.6614,-3.6651,-3.6651,-3.6694,-3.665,-3.6661,-3.6701,-3.6702,-3.6766,-3.6693,-3.6745,-3.6747,-3.6739,-3.6894,-3.6921,-3.7033,-3.6843,-3.6845,-3.6847,0,-3.6509,-3.654,-3.6643,-3.6658,-3.6676,-3.6722,-3.6756,-3.6793,-3.6813,-3.681,-3.6833,-3.681,-3.6867,-3.6809,-3.6886,-3.6837,-3.6857,-3.686,-3.6864,-3.6867,-3.6802,-3.69,-3.7068,-3.7084,-3.6871,-3.6869,-3.6868,0,-3.662,-3.6688,-3.6758,-3.6772,-3.6792,-3.6824,-3.6834,-3.6851,-3.6875,-3.6904,-3.6919,-3.6954,-3.6973,-3.7001,-3.6988,-3.6947,-3.7066,-3.7008,-3.7064,-3.7064,-3.7089,-3.7088,-3.7262,-3.7106,-3.7105,-3.7105,-3.7105,0,-3.6758,-3.6821,-3.6808,-3.685,-3.692,-3.6902,-3.697,-3.6975,-3.699,-3.7032,-3.7001,-3.704,-3.7022,-3.7059,-3.705,-3.7114,-3.7123,-3.7121,-3.7117,-3.7123,-3.7123,-3.7134,-3.7126,-3.7109,-3.7109,-3.7108,-3.7107,0,-3.6893,-3.6887,-3.696,-3.6972,-3.6977,-3.7027,-3.7037,-3.7076,-3.7074,-3.7127,-3.7138,-3.7134,-3.7177,-3.7167,-3.7214,-3.7207,-3.7287,-3.7274,-3.728,-3.7276,-3.7332,-3.7326,-3.7518,-3.7542,-3.7372,-3.7374,-3.7375,0,-3.6981,-3.7029,-3.7046,-3.7072,-3.7084,-3.7126,-3.715,-3.7134,-3.716,-3.7186,-3.7221,-3.7261,-3.7292,-3.7362,-3.7363,-3.7398,-3.7385,-3.745,-3.739,-3.7393,-3.7383,-3.738,-3.7383,-3.7461,-3.7463,-3.7465,-3.7466,0,-3.7136,-3.713,-3.7166,-3.7201,-3.7231,-3.7257,-3.7281,-3.7304,-3.7289,-3.732,-3.7363,-3.7387,-3.7434,-3.7474,-3.7506,-3.7514,-3.7487,-3.7485,-3.7499,-3.7505,-3.7505,-3.7503,-3.731,-3.748,-3.7479,-3.7478,-3.7477,-3.7476,-3.7248,-3.7288,-3.7307,-3.7347,-3.7363,-3.7386,-3.7423,-3.7425,-3.7461,-3.7498,-3.7486,-3.7535,-3.7552,-3.7593,-3.7605,-3.7642,-3.7618,-3.7639,-3.7644,-3.7649,-3.7655,-3.7501,-3.7648,-3.7648,-3.7647,-3.7647,-3.7647,0,-3.74,-3.741,-3.7447,-3.7481,-3.7513,-3.7486,-3.751,-3.7538,-3.7582,-3.76,-3.7631,-3.768,-3.7718,-3.7721,-3.7756,-3.7785,-3.7774,-3.7795,-3.7792,-3.7794,-3.7676,-3.7659,-3.7804,-3.7804,-3.7804,-3.7804,-3.7804,-3.7803,-3.7482,-3.7548,-3.7544,-3.7617,-3.7625,-3.7674,-3.7689,-3.7709,-3.7724,-3.778,-3.7811,-3.7814,-3.7825,-3.7861,-3.7894,-3.7894,-3.7907,-3.7933,-3.7928,-3.7818,-3.7802,-3.7787,-3.7771,-3.7936,-3.7937,-3.8042,-3.8043,-3.8043]}]]